Regional Weather Roundup
Issued by NWS Grand Forks, ND

Home | Current Version | Previous Version | Graphics & Text | Print | Product List | Glossary On
Versions: 1 2 3 4 5 6 7 8 9 10 11 12 13 14 15 16 17 18 19 20 21 22 23 24 25 26 27 28 29 30 31 32 33 34 35 36 37 38 39 40 41 42 43 44 45 46 47 48 49 50
000
ASUS43 KFGF 311931
RWRFGF
PRAIRIE TO PINES  WEATHER ROUNDUP
NATIONAL WEATHER SERVICE EASTERN NORTH DAKOTA/GRAND FORKS ND
200 PM CDT TUE MAY 31 2016

 **SATELLITE DATA USED TO AUGMENT SKY COVER AT AUTOMATED STATIONS**
 *****  WEATHER ACROSS EASTERN NORTH DAKOTA  *****

CITY           SKY/WX    TMP DP  RH WIND       PRES   REMARKS
GRAND FORKS    PTSUNNY   66  53  63 SW20G28   29.69S
GRAND FRKS AFB MOSUNNY   66  52  60 W16       29.69S
GRAND FRKS NWS   N/A     66 N/A N/A SW9         N/A
DEVILS LAKE    CLOUDY    60  52  74 SW12      29.67F
FARGO          CLOUDY    66  47  50 SW21G26   29.75S
WAHPETON ARPT  PTCLDY    68  41  37 SW21      29.79S
$$

 ***** WEATHER ACROSS CENTRAL AND WESTERN NORTH DAKOTA  *****

CITY           SKY/WX    TMP DP  RH WIND       PRES   REMARKS
BISMARCK       LGT RAIN  58  51  78 W17       29.67F
MINOT          PTSUNNY   68  48  48 S10G17    29.61R
JAMESTOWN      MOSUNNY   65  46  50 SW21G31   29.70F
MINOT AFB      MOSUNNY   64  50  60 S7        29.59R
GARRISON         N/A     57  50  77 W10       29.62F
WILLISTON      RAIN      54  50  86 N29G37    29.81R FOG
DICKINSON      LGT RAIN  50  48  93 NW31G40   29.69R
HETTINGER      LGT RAIN  52  48  86 NW30G40   29.79R
$$

 *****  OTHER AIRPORT OBSERVATIONS IN OUR AREA  *****

CITY           SKY/WX    TMP DP  RH WIND       PRES   REMARKS
WALHALLA       FAIR      66  63  88 MISG      29.65S
GRAFTON AIRPOR MOCLDY    64  59  82 SW15      29.69S
VALLEY CITY AR FAIR      64  48  55 SW16G24   29.74F
CANDO          CLOUDY    59  54  82 S14       29.67S
CAVALIER APRT  MOCLDY    66  57  72 S15       29.65S
GWINNER        CLOUDY    64  48  55 SW21      29.77F
ROLLA          MOCLDY    63  50  63 SW9       29.64R
 ***** THE ABOVE OBSERVATIONS ARE NON NWS ARE NOT QUALITY
       CONTROLLED AND MAY MIS-REPORT RAIN FOR SNOW...
$$

  *****  WEATHER ACROSS NORTHERN MINNESOTA  *****

CITY           SKY/WX    TMP DP  RH WIND       PRES   REMARKS
FLAG ISLAND    CLOUDY    52  50  93 SE13G18   29.80F
WARROAD        CLOUDY    54  48  82 SE18      29.78S
ROSEAU         CLOUDY    55  48  76 SE17      29.75F
HALLOCK        PTSUNNY   68  61  77 S14       29.67S
THF RVR FALLS  PTSUNNY   66  55  68 S17       29.73S
BAUDETTE       CLOUDY    51  49  92 SE15      29.80F
WASKISH        CLOUDY    55  54  94 E13       29.80S
CROOKSTON      PTSUNNY   66  52  59 SW21      29.73S
STEPHEN NDAWN    N/A     68  59  73 S15         N/A
GREENBUSH NDAW   N/A     64  61  88 SE13        N/A
$$
  *****  WEATHER ACROSS CENTRAL AND WEST MINNESOTA  *****

CITY           SKY/WX    TMP DP  RH WIND       PRES   REMARKS
FOSSTON        PTSUNNY   66  59  77 S16G23    29.74F
BEMIDJI        CLOUDY    60  56  88 SE12      29.78F
PARK RAPIDS    MOSUNNY   69  55  60 SW13      29.78F
ELBOW LAKE     MOCLDY    67  51  57 SW16      29.83S
WADENA         MOSUNNY   66  54  63 SW12G20   29.80S
DETROIT LAKES  MOSUNNY   66  48  52 SW16G26   29.79S
MOORHEAD       PTSUNNY   64  48  55 SW20      29.77S
FERGUS FALLS   PTSUNNY   66  50  55 SW14G21   29.77F
MORRIS MN      PTSUNNY   68  50  52 W14G21    29.82S
STAPLES        PTSUNNY   66  55  68 SW13      29.81S
$$
  *****  WEATHER ELSEWHERE ACROSS MINNESOTA  *****

CITY           SKY/WX    TMP DP  RH WIND       PRES   REMARKS
DULUTH         LGT RAIN  46  44  93 E9        29.91F
INTRNTL FALLS  LGT RAIN  50  48  93 SE12      29.85F FOG
ELY            RAIN      50  46  87 SE16G22   29.91S
CLOQUET        CLOUDY    45  43  93 E9G18     29.91S
WHEATON        MOSUNNY   70  50  49 SW17G23   29.83S
BRAINERD       CLOUDY    67  58  72 SW12      29.82S
HIBBING        LGT RAIN  49  48  97 SE8       29.88S FOG
ALEXANDRIA     SUNNY     69  50  50 W13       29.84S
SAINT CLOUD    CLOUDY    68  58  70 SW14      29.85S
MINNEAPOLIS    CLOUDY    71  60  68 SW13      29.87S
$$

  *****  WEATHER ACROSS SOUTH DAKOTA  *****

CITY           SKY/WX    TMP DP  RH WIND       PRES   REMARKS
SIOUX FALLS    CLOUDY    68  46  45 W12G23    29.91F
BROOKINGS      SUNNY     66  46  48 W20G25    29.88F
WATERTOWN      MOSUNNY   67  45  45 W18G28    29.87S
HURON          SUNNY     71  45  39 W21G29    29.86F
SISSETON         N/A     69  45  41 W17G30    29.81S
ABERDEEN       PTSUNNY   65  46  50 W18G30    29.80F
MITCHELL       MOSUNNY   70  47  43 W16G24    29.90F
PIERRE         MOSUNNY   68  42  38 W28G38    29.87F
MOBRIDGE       CLOUDY    60  44  55 SW23G31   29.77S
RAPID CITY     CLOUDY    63  38  39 W20G30    29.96S
$$

  *****  SOME WEATHER IN NEARBY STATES *****

CITY           SKY/WX    TMP DP  RH WIND       PRES   REMARKS
GLASGOW MT     PTSUNNY   62  46  55 N28G33    29.99F
GREAT FALLS MT MOSUNNY   60  36  40 NW9G20    30.22F
CHEYENNE WY    MOSUNNY   60  41  49 E6        30.11F
SCOTTSBLUFF NE MOSUNNY   67  40  37 W9G20     30.07F
OMAHA NE       CLOUDY    73  60  63 NW10      29.92F
DES MOINES IA  CLOUDY    80  60  50 SW16      29.89F
DAVENPORT IA   CLOUDY    78  63  59 E9        29.95F
CHICAGO IL     CLOUDY    81  59  47 E10       29.96S
EAU CLAIRE WI  PTSUNNY   79  60  52 S14G21    29.86F
LA CROSSE WI   CLOUDY    83  62  49 S9        29.88F
$$

  *****  SOME NATIONAL WEATHER *****

CITY           SKY/WX    TMP DP  RH WIND       PRES   REMARKS
LA GUARDIA NY  PTSUNNY   83  68  60 S8        29.92F
RALEIGH NC     PTSUNNY   82  68  62 NE10      29.94F
ATLANTA GA     PTSUNNY   89  57  33 CALM      29.95F
NEW ORLEANS LA PTSUNNY   88  71  57 N5        29.94F HX  94
OKLAHOMA CITY  CLOUDY    80  67  64 NE9       29.88F
ALBUQUERQUE NM PTSUNNY   75  43  31 VRB5      29.99F
SALT LAKE CITY MOSUNNY   73  25  16 NW8       30.08F
LOS ANGELES CA CLOUDY    65  57  75 CALM      29.89F HAZE
BOISE ID       SUNNY     71  27  19 CALM      30.10F
SEATTLE WA     MOSUNNY   70  50  49 NW8       30.09F
$$

*** WEATHER ACROSS MANITOBA...SASKATCHEWAN AND ONTARIO ***
                ***ONTARIO***

CITY           SKY/WX    TMP DP  RH WIND       PRES   REMARKS
GERALDTON      PTSUNNY   59  36  41 E10G17    30.14F
THUNDER BAY    LGT RAIN  50  41  71 E13G22    30.09F
SIOUX LOOKOUT  LGT RAIN  48  45  87 E8G17     30.00F FOG
TORONTO        PTSUNNY   79  52  38 NW14G24   29.99F
BIG TROUT LK   SUNNY     50  32  50 E10       30.21F
PICKLE LAKE    CLOUDY    57  28  33 E18G24    30.09F
DRYDEN         LGT RAIN  46  45  93 E17G28    29.93F FOG
KENORA         LGT RAIN  48  48 100 E18G31    29.83F FOG
$$
                *** MANITOBA***

CITY           SKY/WX    TMP DP  RH WIND       PRES   REMARKS
BRANDON        LGT RAIN  54  52  94 NE32G44   29.66S
DAUPHIN        RAIN      52  50  93 NE18G29   29.84S FOG
ISLAND LAKE    CLOUDY    57  36  44 E7G20     30.10F
PILOT MOUND      N/A     64  52  63 S14         N/A
THE PAS        PTSUNNY   63  41  45 E7        30.06F
THOMPSON       PTSUNNY   57  34  41 E7        30.16F
WINNIPEG       LGT RAIN  55  52  88 E21G28    29.71F
LYNN LAKE      PTSUNNY   59  41  51 SE6       30.12F
CHURCHILL      MOSUNNY   43  28  56 S16       30.33F
GILLAM         MOSUNNY   46  23  39 E9        30.25F
$$
                ***SASKATCHEWAN***

CITY           SKY/WX    TMP DP  RH WIND       PRES   REMARKS
ESTEVAN        SHOWER    52  50  93 N24G33    29.79R
KINDERSLEY     PTSUNNY   59  48  67 NW15G21   30.09F
LLOYDMINSTER   PTSUNNY   61  48  63 N10G18    30.11F
PRINCE ALBERT  CLOUDY    59  45  58 E8G17     30.06S
REGINA         CLOUDY    54  50  87 N18       29.94F
YORKTON        PTSUNNY   54  46  76 NE18G26   29.89F
N. BATTLEFORD  MOSUNNY   61  48  63 N9        30.08F
LA RONGE       PTSUNNY   63  43  48 SE6G21    30.09F
SASKATOON      CLOUDY    61  46  59 N15       30.05F
SWIFT CURRENT  RAIN      50  45  81 N17G28    30.06R
$$
NOTE: THESE ARE AUTOMATED STATIONS WITH LIMITED QUALITY CONTROL
      "FAIR" INDICATES FEW OR NO CLOUDS BELOW 12,000 FEET WITH NO
      SIGNIFICANT WEATHER AND/OR OBSTRUCTIONS TO VISIBILITY.
      SKY/WX - SKY CONDITION AND SIGNIFICANT WEATHER.
      TMP - AIR TEMPERATURE.    DP   - DEWPOINT TEMPERATURE.
      RH  - RELATIVE HUMIDITY.  PRES - PRESSURE.
      HX  - HEAT INDEX.         WCI  - WIND CHILL INDEX.
$



USA.gov is the U.S. government's official web portal to all federal, state and local government web resources and services.